Tracking 29892 objects as of 21-Nov-2024
HD Live streaming from Space Station
objects crossing your sky now

YAOGAN-36 03A

Track YAOGAN-36 03A now!
10-day predictions


NORAD ID: 54372
Int'l Code: 2022-160A
Perigee: 499.5 km
Apogee: 506.2 km
Inclination: 35.0 °
Period: 94.5 minutes
Semi major axis: 6873 km
RCS: Unknown
Launch date: November 27, 2022
Source: People's Republic of China (PRC)
Launch site: Xichang Space Center, China (XSC)
Your satellite tracking list
Your tracking list is empty




NASA's NSSDC Master Catalog

Two Line Element Set (TLE):
1 54372U 22160A   24326.16037430  .00027659  00000-0  11329-2 0  9990
2 54372  34.9963 346.4613 0004938 157.7867 202.3062 15.23359287110595
Source of the keplerian elements: AFSPC